Voltar ao catálogo

HERMES-3

AtivoCiênciaSSO
NORAD 63835·PAYLOAD·🇮🇹 Italy

Lançado Mar 15, 2025 de Vandenberg Space Force Base

Loading…

Próximas Passagens (próximas 24 horas)

TLE

AtualizadoSource: Space-Track

Época: Sep 13, 2026, 17:10 UTC

1 63835U 25052BR  26256.71536195  .00016696  00000-0  46637-3 0  9994
2 63835  97.3718 152.3354 0006532 151.9331 208.2267 15.36759433 83648

Acompanhe HERMES-3 em tempo real com AllMySat

Download on the App Store